Location: Jackson Park
(37.2862°N, 79.9123°W)
Time: 14:31:51
(UTC+00:00)

Vanguard 1 Rocket - Pass Details

Date: 21 May 2026
Orbit: 656 x 4211 km, 34.3° (Epoch: 8 June)

Event Time Altitude Azimuth Distance (km) Brightness Sun altitude
Rises 19:34:53 0° 252° (WSW) 3,531 11.0 55.5°
Reaches altitude 10° 19:36:55 10° 250° (WSW) 2,806 10.7 55.1°
Maximum altitude 19:43:39 70° 168° (SSE) 1,567 9.6 53.9°
Drops below altitude 10° 19:56:56 10° 88° (E) 5,271 11.0 51.3°
Sets 20:02:19 0° 87° (E) 6,861 11.5 50.3°
